GFSSE_prec_cloud_003.txt.gz
Cloud_Cover
41 5 17 36 100 88 100 100 100 35 57 68 18 9 2 5 16 5 22 100 95 100 99 100 100 100 100 100 100 100 91 12 84 72 100 91 99 21 1 0 5 100 100
39 62 92 98 97 100 93 100 11 8 24 67 98 92 5 27 98 25 9 100 61 100 100 100 100 100 90 100 100 100 100 27 5 94 47 61 76 86 62 52 62 100 100
70 62 98 100 96 98 99 33 59 99 100 100 94 77 6 11 97 98 98 100 98 100 100 100 100 100 100 100 100 100 100 100 99 100 39 100 100 100 50 12 5 4 13
87 100 100 75 100 31 9 38 61 100 100 100 69 15 19 4 6 5 16 4 97 100 100 100 100 100 100 100 100 100 100 100 100 100 100 100 100 100 100 100 93 4 4
4 52 92 2 4 5 11 5 4 4 0 0 18 88 42 0 14 82 62 0 16 100 97 100 100 100 100 100 100 100 100 100 100 100 100 100 83 100 100 100 82 99 27
56 10 38 88 93 68 17 5 1 5 0 0 0 0 2 9 5 16 1 58 98 76 100 100 100 100 100 100 100 100 100 100 100 100 100 100 97 100 100 100 100 100 70
27 98 94 19 1 0 0 17 38 14 0 0 0 0 0 0 1 18 0 0 46 100 100 100 100 100 100 100 100 100 100 100 100 100 100 100 100 100 100 100 5 5 3
41 75 12 0 1 2 2 2 0 0 0 0 0 0 0 0 8 11 3 1 3 100 100 100 100 100 100 100 100 100 100 100 100 100 100 100 100 100 100 99 5 5 8
49 0 0 0 0 0 0 0 0 0 0 0 0 0 0 0 0 8 0 0 0 100 100 100 100 100 100 100 100 100 100 100 100 99 100 100 100 98 96 18 5 3 5
0 0 0 0 0 0 0 0 0 0 0 0 0 0 1 0 0 0 0 0 0 56 100 100 100 100 100 100 100 100 100 100 100 100 100 97 100 100 100 55 54 9 53
0 0 0 0 0 0 0 0 0 0 0 0 0 0 0 0 0 0 0 0 0 0 100 100 100 100 100 100 100 100 100 100 100 100 72 100 100 97 95 39 5 82 31
0 0 0 0 0 0 1 0 0 2 3 0 4 4 0 4 0 0 0 0 0 0 4 99 100 100 100 100 100 100 100 100 100 49 100 100 100 75 100 100 5 21 5
0 0 0 0 0 0 0 0 0 0 0 0 0 0 0 0 0 0 6 1 5 0 24 3 94 100 100 100 100 100 100 100 100 100 100 99 100 100 100 100 100 100 99
0 0 0 0 0 0 0 0 0 0 0 0 0 0 0 1 0 0 0 0 0 0 1 9 14 100 100 100 100 100 100 100 100 100 100 100 96 100 100 100 100 100 100
0 0 0 0 1 4 2 1 8 9 23 5 1 0 4 5 9 0 0 0 0 12 6 5 55 41 99 100 96 85 100 100 100 100 100 100 100 100 100 100 100 100 100
2 2 0 0 3 3 0 5 6 5 5 4 14 4 2 1 6 2 3 0 0 0 0 1 0 0 50 100 100 100 66 100 100 100 100 100 100 100 100 100 100 100 100
5 1 1 0 5 5 78 96 19 5 52 13 19 5 5 0 0 0 0 0 0 5 5 5 38 5 1 6 99 100 100 100 100 100 100 100 100 100 100 100 100 100 100
80 30 19 37 12 38 58 55 97 22 49 55 73 19 10 5 5 0 3 5 4 5 6 55 97 89 14 5 8 95 100 100 100 100 100 100 100 100 100 100 100 100 100
100 100 100 100 99 100 100 100 100 100 98 99 66 92 66 9 5 5 5 4 0 0 5 4 9 90 17 73 7 4 28 80 100 100 100 100 100 100 100 100 100 100 100
100 100 100 100 100 100 100 100 99 100 79 13 6 46 97 73 52 99 48 5 5 0 0 0 0 9 4 5 12 12 2 4 9 100 100 100 100 100 100 100 100 100 100
100 100 100 58 61 100 100 100 98 78 68 5 5 27 100 86 15 98 99 44 5 5 5 5 5 5 5 5 5 19 89 18 0 5 99 100 100 100 100 100 100 100 100
26 86 93 88 5 5 6 11 30 5 19 98 100 39 5 11 30 100 100 79 23 97 42 5 5 5 5 5 5 4 7 100 97 1 6 94 100 100 100 100 100 100 100
84 94 60 5 5 5 5 26 20 5 56 100 92 6 82 88 91 96 100 100 100 63 81 5 5 5 5 5 5 51 46 55 100 98 4 4 100 100 100 100 100 100 100
57 86 98 58 5 5 5 5 5 5 5 6 87 72 100 100 100 33 100 100 100 100 72 42 11 6 87 28 5 5 5 95 100 100 97 9 12 100 100 100 100 100 100
52 74 27 45 100 100 98 19 6 5 6 88 95 79 92 98 100 100 100 100 100 100 89 96 60 24 100 69 5 5 5 50 100 100 100 100 68 25 100 100 100 100 100
100 100 100 79 30 11 52 79 93 100 100 98 99 85 64 41 55 100 100 100 100 100 93 100 100 100 84 74 72 97 9 5 59 100 100 100 100 100 100 99 100 100 100

GFSSE_prec_cloud_006.txt.gz
Cloud_Cover
22 84 100 67 100 100 98 100 93 100 66 95 70 73 100 80 90 92 33 72 96 100 98 99 88 100 100 100 100 100 100 100 100 100 100 100 14 10 46 100 5 68 100
86 69 100 100 100 100 100 99 79 34 30 7 50 12 91 100 100 100 99 32 85 99 71 93 100 100 100 100 100 100 100 100 100 100 100 100 100 81 98 23 88 78 89
100 100 100 100 100 100 100 100 100 100 68 97 13 66 100 86 100 100 99 100 90 32 77 100 98 99 100 100 100 100 100 100 100 100 100 100 100 100 100 99 82 100 100
97 60 100 88 70 71 100 100 51 10 7 4 0 9 35 61 99 100 97 99 28 78 68 100 100 100 100 100 100 100 100 100 100 100 100 100 100 100 94 98 98 61 76
32 57 100 56 67 100 100 100 71 23 8 4 3 21 20 1 0 4 100 69 46 100 8 100 100 76 100 100 100 100 100 100 100 100 100 100 100 100 100 100 100 100 100
28 15 34 99 100 100 80 96 10 4 21 11 1 8 24 5 0 0 12 35 91 100 38 96 100 100 100 100 100 100 100 100 100 100 100 100 100 100 84 100 100 100 100
60 100 100 100 100 100 74 5 4 3 0 0 0 0 6 1 0 0 0 2 0 0 28 66 100 100 100 100 100 100 100 100 100 100 100 100 100 100 100 100 100 100 100
100 100 100 80 28 9 2 0 0 0 0 0 0 0 0 0 0 3 7 0 0 6 0 3 63 100 100 100 100 100 100 100 100 100 98 100 100 100 100 100 100 100 100
77 62 51 9 0 0 0 0 0 0 0 0 0 0 0 0 0 1 0 0 0 0 0 0 74 100 100 100 100 100 100 100 100 100 100 100 98 100 36 100 100 100 100
1 0 0 0 0 0 0 0 0 0 0 0 0 0 0 0 0 0 0 0 0 0 0 0 49 100 100 100 100 100 100 100 100 100 100 100 98 100 100 100 100 60 12
0 2 0 0 0 0 0 0 0 0 0 0 0 0 0 0 1 0 1 2 0 0 0 0 2 100 100 100 100 100 100 100 100 100 100 100 93 85 100 100 100 100 42
0 0 0 0 0 0 0 0 0 0 0 0 0 24 7 0 0 0 1 0 0 0 0 0 1 84 100 100 100 100 100 100 100 100 100 100 100 98 82 92 74 100 100
0 0 0 0 0 0 0 0 10 2 2 0 0 0 0 0 0 6 10 16 0 0 14 4 5 7 100 100 100 100 100 100 100 100 100 100 100 100 100 7 8 99 54
0 0 0 0 0 1 4 5 5 0 5 5 5 5 18 5 1 6 12 6 0 1 1 0 4 6 28 100 100 100 100 99 100 100 100 100 100 100 100 89 7 88 97
5 5 5 5 5 27 43 8 16 5 5 7 80 39 7 49 7 19 24 3 0 0 2 0 9 72 100 95 100 100 100 100 73 100 100 100 100 100 100 100 55 75 76
5 6 7 6 24 5 22 95 100 100 99 82 33 88 77 64 90 87 68 6 5 5 3 0 0 0 0 0 74 100 100 100 100 100 100 100 100 100 100 100 100 100 100
16 95 100 100 100 100 76 34 30 85 100 79 100 16 6 50 80 64 20 5 5 4 1 0 0 0 0 2 1 38 100 100 100 100 100 100 100 100 100 100 100 100 100
100 100 100 100 92 95 98 99 100 100 72 100 100 13 5 50 27 83 30 5 11 20 6 4 1 0 0 0 1 5 4 36 94 100 100 100 100 100 100 100 100 100 100
96 100 100 100 100 70 97 100 100 100 100 99 100 100 48 87 51 9 45 5 8 24 6 5 5 5 0 0 0 0 0 0 67 23 92 100 100 100 100 100 100 100 100
100 95 70 35 37 62 64 32 8 5 10 5 1 9 94 100 67 12 95 100 80 100 93 17 5 5 5 5 5 4 0 0 5 9 25 10 95 100 100 100 100 100 100
13 6 8 5 5 5 5 5 5 5 5 5 5 5 5 5 6 5 5 29 69 64 10 22 5 5 5 5 5 5 5 5 4 5 5 5 36 36 100 100 100 100 100
16 18 5 2 5 5 62 11 13 60 6 8 7 5 20 12 44 70 28 5 5 39 69 55 8 40 36 25 5 5 5 16 5 32 67 45 5 6 31 90 100 100 100
14 48 28 5 5 5 88 64 64 19 29 18 41 5 5 35 44 31 66 56 57 90 99 32 63 100 99 82 26 5 5 5 13 73 11 20 5 5 8 86 95 100 100
5 5 5 5 59 20 7 35 5 5 5 5 5 5 2 4 4 5 5 7 39 78 82 94 68 88 100 60 19 67 5 30 5 46 74 70 21 80 96 100 100 95 100
43 5 6 6 52 100 100 100 100 100 100 100 41 5 5 5 5 5 5 5 5 5 24 86 100 83 93 65 9 69 49 61 5 5 58 79 100 88 100 100 100 100 99
7 80 35 55 100 98 100 98 100 84 61 9 14 5 19 32 36 100 98 98 100 95 67 48 96 100 100 80 26 63 42 5 5 5 1 2 35 100 97 100 100 100 96

GFSSE_prec_cloud_009.txt.gz
Cloud_Cover
100 100 100 100 100 100 100 100 100 100 99 100 100 100 99 59 8 83 100 92 10 90 7 22 12 92 100 100 74 100 100 100 100 100 100 100 100 100 97 56 5 2 26
100 100 100 100 100 100 99 96 100 71 100 100 66 49 100 44 44 92 16 30 5 100 94 94 8 14 100 100 100 100 100 100 100 100 100 100 100 100 100 67 49 35 38
100 100 100 96 100 100 100 98 100 100 92 30 82 82 99 95 91 89 22 42 5 51 22 100 13 98 78 100 100 100 100 100 100 100 100 100 100 100 100 100 100 99 27
100 100 100 100 100 51 84 100 100 100 45 98 100 99 67 21 3 2 58 9 9 6 26 100 100 68 18 100 100 100 100 100 100 100 100 100 100 100 100 100 100 100 50
92 100 34 94 58 86 100 100 57 100 100 100 100 41 5 22 48 4 0 0 4 3 0 16 100 42 100 100 100 100 100 100 100 100 100 100 100 100 100 100 100 100 100
9 6 32 49 8 5 33 100 97 100 34 88 100 25 87 4 0 0 0 0 0 0 0 5 92 50 98 100 100 100 100 100 100 100 100 100 100 100 100 100 100 100 100
92 61 8 3 47 88 100 85 79 10 5 14 2 0 0 0 0 0 0 0 0 0 0 0 14 1 70 100 100 100 100 100 100 100 100 100 100 100 100 100 100 100 100
41 7 70 62 99 56 3 0 0 0 0 0 0 0 0 0 0 5 0 0 0 0 37 0 0 0 2 78 100 100 100 100 100 100 100 100 100 100 100 100 100 100 84
8 50 56 18 0 0 0 0 0 0 0 0 0 0 0 0 0 0 0 0 0 0 0 0 1 0 0 6 100 100 100 100 100 100 100 100 100 100 100 100 100 100 81
2 0 0 0 0 0 0 0 0 0 0 0 0 0 0 0 0 0 0 0 0 0 0 0 0 0 24 6 100 100 100 100 100 100 100 100 100 100 100 100 100 100 100
1 0 0 0 0 0 0 0 0 0 0 0 3 0 0 0 0 0 4 5 2 0 0 0 0 2 0 6 66 100 100 100 100 100 100 100 100 100 100 100 97 100 90
0 1 0 0 0 0 0 0 0 0 0 0 17 12 7 0 0 0 0 0 1 5 3 1 0 0 0 0 3 100 100 100 100 100 100 100 100 98 100 97 98 75 98
0 0 0 0 0 2 2 5 5 6 27 34 5 60 17 5 6 3 25 9 0 0 0 4 5 13 0 0 2 95 100 100 100 100 100 100 100 100 38 95 100 100 100
4 5 6 5 9 84 96 100 100 100 100 67 43 5 14 32 14 22 91 100 100 20 4 1 8 2 5 5 0 73 100 100 100 100 100 100 100 100 100 100 56 100 100
2 6 35 36 47 20 84 100 100 100 100 100 100 93 22 85 42 62 50 65 85 98 100 100 90 13 0 2 5 5 84 100 100 100 47 96 100 100 100 100 100 93 100
34 26 28 72 69 96 62 17 22 36 28 5 76 49 40 65 37 7 30 60 35 75 48 37 92 97 100 58 4 4 5 46 100 100 100 83 87 100 100 100 100 100 100
70 56 15 5 10 7 5 5 5 5 5 5 5 6 5 5 5 5 5 4 2 5 5 25 36 19 5 5 3 0 3 5 6 100 100 100 100 23 59 100 100 100 100
24 5 4 0 0 0 1 4 5 5 5 7 5 5 5 5 5 13 5 5 5 5 5 3 3 1 3 3 0 0 0 0 1 5 15 100 100 100 100 68 100 100 100
5 2 1 4 5 5 5 5 5 5 5 5 5 5 6 5 5 5 5 5 14 25 5 10 10 4 0 0 0 0 0 0 0 0 2 5 85 100 100 100 100 100 100
5 5 5 5 1 0 0 1 3 5 5 16 94 35 5 5 5 5 5 5 5 7 23 39 15 5 5 0 0 0 0 0 4 0 0 0 0 0 7 59 100 100 100
0 0 0 0 0 5 5 5 5 5 3 5 6 25 48 28 5 5 5 5 5 5 5 5 5 5 5 2 0 0 0 0 2 0 5 5 5 12 2 5 4 44 100
5 5 1 0 5 5 5 4 0 0 0 1 0 0 1 3 4 4 4 4 3 4 5 5 5 54 36 5 3 0 3 3 5 11 5 46 100 83 21 11 6 4 4
1 0 0 0 0 0 1 5 9 2 3 3 36 51 62 34 4 5 5 5 7 43 12 5 5 27 96 58 65 70 60 13 5 11 66 65 82 17 4 10 72 96 7
5 5 11 100 100 100 100 100 100 100 100 100 100 100 100 100 100 99 43 25 67 98 95 95 93 58 7 46 80 100 100 100 93 34 100 74 5 5 1 5 35 100 98
5 30 55 44 62 58 6 85 89 98 100 100 100 100 100 100 100 95 19 59 100 100 100 100 100 100 100 100 100 89 88 100 96 82 12 99 81 5 23 7 5 55 56
11 6 5 92 67 16 5 5 11 60 34 5 7 3 2 1 0 0 4 36 87 37 16 100 100 97 59 100 88 100 95 81 99 91 83 6 59 6 6 81 97 61 5

GFSSE_prec_cloud_015.txt.gz
Cloud_Cover
56 100 5 32 73 12 55 100 100 100 100 96 100 100 98 99 100 100 100 90 96 100 92 92 54 7 0 0 1 0 0 29 2 76 100 27 15 48 100 100 100 89 99
94 99 100 99 71 100 100 100 100 100 61 100 55 32 44 6 10 12 58 60 95 44 90 98 75 15 5 9 3 1 0 3 1 100 100 28 100 100 100 100 100 59 49
100 98 100 100 100 100 100 100 100 100 100 94 69 87 54 68 70 100 87 20 55 99 100 69 34 5 4 1 5 72 5 6 88 78 63 5 67 81 100 100 100 100 100
100 100 100 100 100 100 100 100 92 58 9 17 29 0 91 24 76 100 51 5 5 44 45 63 99 17 15 5 64 91 5 10 51 16 94 100 94 39 100 100 100 100 100
100 100 100 100 100 100 9 94 11 0 1 4 5 1 1 0 2 1 0 0 1 6 8 8 3 16 67 87 40 5 5 4 7 34 99 100 100 80 100 100 100 100 100
100 100 100 100 100 29 74 8 0 0 0 0 0 0 4 13 0 0 0 0 0 0 6 13 16 2 0 0 3 0 0 0 33 100 95 100 100 100 100 100 100 100 100
100 100 100 58 24 1 0 0 0 0 0 0 0 0 0 2 0 0 0 0 0 0 31 29 0 0 0 0 0 0 0 0 5 9 100 98 100 100 100 100 100 100 100
100 100 53 14 0 0 0 0 0 0 0 0 0 0 2 0 0 0 0 0 0 0 2 0 14 16 2 16 14 26 2 0 21 22 77 97 100 100 100 100 100 100 100
100 90 2 0 0 0 0 0 0 0 0 0 0 0 0 0 0 0 0 0 6 1 5 0 0 7 4 0 0 0 0 0 2 48 34 100 100 100 100 100 100 100 100
60 12 0 0 0 0 0 0 0 0 0 0 0 0 0 0 0 0 0 0 0 0 0 0 0 0 0 3 0 0 0 0 0 0 86 100 100 100 100 100 100 100 100
0 0 0 0 0 0 0 0 0 0 0 0 0 0 0 0 0 0 0 0 0 3 0 0 0 0 0 0 4 2 0 0 0 0 66 100 100 100 100 100 100 100 100
0 0 0 0 0 0 0 0 2 4 4 5 5 6 5 4 3 0 0 0 0 0 0 0 1 0 0 0 0 2 5 1 0 0 21 100 100 100 100 100 100 100 100
0 0 0 0 0 0 0 0 0 0 0 0 0 4 14 8 2 4 5 5 24 5 5 3 3 0 0 5 3 0 0 0 0 0 2 91 100 100 100 100 100 100 100
0 0 0 0 0 0 0 0 0 0 0 0 0 0 0 4 5 5 5 5 0 0 1 2 5 5 5 4 5 5 5 0 0 0 0 3 39 100 100 100 100 100 100
0 3 1 3 0 0 0 0 4 0 0 0 0 0 0 3 5 4 0 0 0 0 0 0 1 2 4 4 5 5 5 3 0 0 0 0 3 27 100 100 100 100 100
2 5 5 6 5 5 5 5 4 0 0 2 2 0 2 1 1 0 0 0 0 0 0 0 0 0 5 5 5 4 3 5 5 4 0 0 1 5 38 100 100 100 100
1 37 52 27 5 5 14 24 6 5 5 3 0 0 0 0 0 0 0 0 0 0 0 0 0 0 0 0 1 5 5 5 4 5 4 5 0 5 9 5 90 100 100
0 0 0 0 5 4 4 2 5 3 1 0 0 0 0 0 0 0 0 0 0 0 1 0 0 1 4 0 0 0 0 1 5 5 4 5 1 0 4 5 9 51 96
0 0 0 0 0 4 5 5 5 3 0 0 0 0 2 5 4 5 5 4 3 1 0 0 0 0 0 0 0 2 2 0 0 0 1 5 5 4 0 2 5 5 6
0 0 0 0 5 5 5 5 5 2 0 4 5 0 0 0 0 0 0 0 0 0 0 0 1 2 4 1 0 3 0 0 0 0 0 0 0 4 5 3 0 2 47
0 0 0 5 5 5 5 5 5 5 1 0 0 0 0 5 5 0 4 5 5 4 5 0 2 5 4 5 5 0 0 0 0 0 0 0 0 0 0 4 5 0 0
5 0 0 5 5 5 5 5 4 5 5 5 16 58 8 5 5 5 4 4 3 2 0 0 0 0 5 5 5 5 2 0 0 0 0 0 0 0 0 0 0 0 5
2 0 0 0 1 3 0 5 4 13 43 36 9 5 5 5 5 0 0 0 0 0 0 0 0 0 3 5 8 35 5 5 4 1 3 3 1 0 0 0 0 0 0
0 0 5 5 5 5 11 9 5 21 32 5 5 5 5 5 5 5 4 0 0 0 0 0 0 1 5 5 5 7 5 5 5 5 2 72 98 25 1 0 0 0 1
5 57 91 100 97 10 5 5 6 72 5 12 18 5 5 5 5 5 5 0 0 0 0 0 0 0 5 57 10 91 100 83 46 5 5 4 89 97 8 5 16 0 2
97 97 21 73 18 77 87 86 82 27 74 70 84 76 5 17 5 4 5 5 3 0 1 18 65 84 100 75 80 87 100 100 82 48 55 52 78 11 11 100 55 9 2

GFSSE_prec_cloud_021.txt.gz
Cloud_Cover
39 5 5 5 5 4 72 100 95 100 100 99 100 100 100 100 93 64 96 72 100 74 100 99 100 100 100 100 100 96 35 78 100 100 100 100 100 98 13 5 5 65 42
42 5 18 13 5 6 11 70 95 84 100 100 89 98 50 48 31 10 10 0 0 0 18 100 68 13 5 17 53 100 85 94 100 7 12 100 21 5 5 5 86 64 100
23 5 5 5 24 42 100 100 100 100 100 100 81 5 2 0 0 0 0 0 4 2 0 0 3 15 1 5 4 5 5 10 23 99 100 29 58 98 44 5 99 100 70
5 8 5 54 100 100 100 100 100 100 95 100 98 10 1 0 0 0 0 0 0 0 0 0 26 9 0 0 0 0 0 5 6 5 38 66 98 31 84 74 92 100 86
15 96 100 100 100 100 100 100 100 58 87 77 1 3 0 0 0 0 0 0 0 0 10 14 7 18 0 0 0 0 0 0 0 4 5 99 33 79 100 100 90 78 100
99 100 100 100 100 100 100 100 94 100 100 5 0 12 12 0 0 0 0 0 0 9 29 24 3 0 0 0 0 0 0 0 0 0 73 100 5 90 79 89 97 100 100
100 100 100 100 100 100 98 12 5 4 1 0 0 0 0 0 0 0 0 0 1 9 27 9 7 0 0 1 0 0 0 0 0 14 57 78 99 73 35 75 78 99 100
100 100 100 100 100 100 100 5 2 0 0 0 0 1 0 0 0 1 14 12 4 3 0 1 16 15 7 0 0 0 0 0 0 54 100 100 93 7 100 100 78 59 100
100 100 100 100 100 15 20 2 0 0 0 0 0 0 0 0 0 0 0 0 0 0 0 0 0 0 0 0 0 0 0 0 0 6 36 98 97 15 100 94 97 58 100
100 100 100 100 100 5 0 0 0 0 0 0 0 0 0 0 0 0 0 0 0 0 0 0 0 0 0 0 0 0 0 0 0 1 61 96 78 0 3 5 5 99 100
100 100 100 100 42 4 0 3 0 0 0 2 0 0 0 0 0 5 0 0 0 0 0 0 0 0 0 0 0 0 0 0 0 0 46 0 0 0 6 34 16 98 100
100 100 100 43 3 1 0 0 0 0 0 0 0 0 0 0 0 0 3 0 0 0 0 0 0 0 0 0 0 0 0 0 2 4 7 0 0 0 0 2 73 93 100
100 100 10 0 0 0 0 0 0 0 0 0 0 0 0 0 6 3 31 16 31 0 0 0 0 0 0 0 0 0 0 0 0 0 0 1 0 0 0 0 26 99 100
57 2 0 0 0 0 0 0 0 0 0 0 0 0 0 0 0 0 0 0 0 0 0 0 0 0 0 0 0 0 0 0 0 0 0 0 0 0 5 0 14 94 100
53 13 16 0 0 0 0 0 0 0 0 0 0 0 0 0 0 0 0 0 0 0 0 0 0 0 0 0 0 0 0 0 0 0 0 0 0 0 0 5 34 100 100
32 54 52 12 0 0 0 0 0 0 0 0 0 0 0 0 0 0 0 0 0 4 0 0 0 0 0 1 0 0 0 0 0 0 0 2 0 0 0 5 8 98 100
5 25 84 36 0 0 0 0 0 0 0 0 0 0 0 0 0 5 6 8 12 5 5 33 54 38 5 5 2 0 0 0 0 2 0 0 0 2 5 0 5 11 100
10 42 4 0 0 0 0 0 5 5 5 4 5 5 1 4 5 8 41 22 56 91 52 26 12 0 2 3 1 2 0 2 5 1 0 0 0 0 0 2 5 5 9
0 0 0 0 2 3 5 22 5 7 5 5 5 5 5 5 11 40 43 25 6 5 5 0 0 1 2 34 36 14 40 15 8 5 5 5 2 0 0 0 0 5 2
0 0 0 0 3 5 41 62 45 59 5 31 51 5 5 5 5 5 5 5 5 5 2 5 5 9 5 19 88 59 43 34 88 50 5 2 5 2 0 0 1 0 2
0 0 0 5 5 30 75 77 86 89 92 87 27 10 10 5 5 5 5 5 5 5 5 5 5 5 10 5 5 5 16 5 5 5 5 4 1 2 2 5 3 0 0
0 0 4 5 21 76 100 100 100 100 87 91 93 91 71 9 46 48 30 81 88 58 18 16 12 22 21 85 40 22 5 5 29 12 13 5 3 4 5 4 9 3 0
5 4 5 5 64 100 100 83 94 95 83 81 100 30 30 89 99 28 8 5 32 51 14 5 5 78 100 100 22 5 5 5 12 54 99 100 90 54 10 5 4 1 0
5 5 5 47 17 9 5 68 98 93 89 97 24 58 31 97 39 5 5 5 48 5 5 5 11 68 35 28 5 5 84 72 70 26 5 86 100 100 100 70 100 64 2
4 5 5 5 5 44 85 95 100 93 100 30 46 62 43 19 77 17 5 5 5 5 5 9 94 80 54 31 35 42 6 4 63 92 37 100 100 100 100 100 100 100 100
5 5 5 5 5 8 28 5 21 56 78 100 75 36 24 62 43 5 5 18 69 92 99 78 96 97 76 50 52 68 95 100 100 100 100 100 100 100 100 100 97 98 100

GFSSE_prec_cloud_024.txt.gz
Cloud_Cover
5 2 5 5 4 5 5 5 4 1 0 0 0 5 68 70 61 30 94 83 30 74 40 74 100 100 100 100 100 100 100 100 100 100 87 10 46 88 100 100 100 100 100
8 4 3 4 5 5 5 5 4 0 5 14 7 95 100 100 99 5 1 2 0 0 0 0 41 46 100 40 74 100 100 100 76 100 100 6 78 96 100 100 100 29 96
11 16 6 5 50 6 8 5 5 4 58 100 99 100 100 7 0 0 0 0 0 0 0 5 2 18 0 0 0 1 0 0 3 0 0 19 94 90 24 40 100 81 34
44 43 77 97 87 53 100 50 13 100 100 100 99 100 5 1 0 0 0 0 0 0 0 1 22 0 0 0 0 0 0 0 0 0 0 0 66 73 3 100 98 100 100
94 100 100 100 100 58 39 66 100 100 100 100 66 46 0 2 0 1 0 0 0 0 0 2 0 0 0 0 0 0 0 0 0 0 0 63 97 100 85 100 100 100 12
100 100 100 100 100 100 100 100 100 100 100 85 100 22 34 28 0 0 0 0 0 11 23 3 0 0 0 0 0 0 0 0 0 0 0 1 17 55 97 100 100 88 98
97 100 100 100 100 100 100 100 100 100 100 100 53 2 0 0 0 0 0 1 11 10 6 0 0 0 0 0 0 0 0 0 0 0 2 82 11 42 91 100 95 100 100
100 100 100 100 100 100 100 100 100 100 100 99 2 0 0 0 0 0 0 0 0 0 0 0 0 0 0 0 0 0 0 0 0 0 29 55 16 100 100 100 100 100 41
100 100 100 100 100 100 100 100 100 100 99 24 0 0 0 0 0 0 0 0 0 0 0 0 0 0 0 0 0 0 0 0 0 0 30 51 0 82 100 100 100 100 96
100 100 100 100 100 100 100 100 100 58 4 0 0 0 0 0 0 0 0 0 0 0 0 0 0 0 0 0 0 0 0 0 0 0 0 34 0 0 1 44 5 55 100
100 100 100 100 100 100 84 86 92 5 0 0 0 0 0 9 97 18 0 0 0 0 0 0 0 0 0 0 0 0 0 0 0 0 0 0 0 0 0 0 0 49 97
100 100 100 100 100 85 5 3 0 0 0 0 0 2 90 0 36 0 1 0 0 0 0 0 0 0 0 0 0 0 0 0 0 0 0 0 0 0 0 0 0 0 5
100 100 100 100 29 4 0 0 20 0 0 0 0 0 0 0 16 0 0 0 0 0 0 0 0 0 0 0 0 0 0 0 0 0 0 0 0 0 0 0 0 0 0
100 84 76 13 0 0 0 0 0 0 0 14 0 0 0 0 0 0 0 0 0 0 0 0 0 0 0 0 0 0 0 1 0 0 0 0 0 0 0 0 1 0 1
72 5 38 1 0 0 0 0 0 0 0 0 0 0 0 0 0 0 0 0 0 0 0 0 0 0 0 2 0 0 0 1 0 0 0 2 0 0 0 0 0 5 2
9 1 2 0 0 0 0 0 0 0 0 0 0 0 0 0 0 0 0 0 0 0 0 4 5 3 0 0 0 0 0 0 0 0 0 2 5 5 3 0 0 4 5
100 62 5 54 50 0 0 0 0 0 5 0 0 2 5 0 0 0 0 0 0 0 0 0 0 0 0 0 0 0 0 0 0 0 5 0 0 1 1 5 5 0 5
37 24 93 38 4 0 0 0 0 0 5 5 5 5 5 0 5 3 5 5 2 5 5 5 5 5 0 0 1 0 0 1 2 5 0 2 0 5 2 0 0 3 5
34 2 3 3 0 0 14 2 4 5 5 5 23 6 5 4 5 5 5 4 5 4 5 25 7 3 1 5 5 7 5 40 44 5 5 5 0 0 4 9 4 0 0
0 0 0 5 7 7 5 4 5 5 5 12 99 7 5 5 5 11 5 5 5 5 5 5 5 5 5 5 5 5 5 5 5 5 5 2 8 10 4 3 25 25 1
0 0 0 0 5 5 5 41 95 17 72 26 73 76 5 74 98 5 5 5 5 5 5 5 3 5 5 5 5 5 5 5 5 5 5 15 46 100 98 7 0 4 5
0 0 5 53 99 10 73 74 71 98 46 56 76 66 5 99 80 18 5 24 4 5 5 5 4 2 5 4 3 4 4 5 21 16 16 13 68 37 30 19 20 5 5
4 8 83 72 5 67 34 5 5 5 34 62 79 70 100 45 80 50 5 5 5 5 5 5 5 5 4 5 4 21 34 15 9 53 52 29 71 74 100 74 84 98 52
5 12 5 5 5 4 5 2 5 5 5 9 5 7 5 26 92 59 60 50 5 5 5 11 5 5 5 5 15 5 74 80 82 23 5 5 5 9 39 100 68 100 99
5 5 5 5 5 5 5 5 8 48 50 27 83 100 100 100 100 100 100 51 35 92 99 58 94 100 100 98 17 32 20 67 100 82 43 7 89 96 16 60 94 100 21
3 2 1 0 5 6 9 27 99 100 100 100 100 100 100 100 100 100 100 100 95 81 100 100 100 99 32 24 21 89 99 100 100 100 100 58 99 14 72 47 99 66 100

GFSSE_prec_cloud_027.txt.gz
Cloud_Cover
40 8 5 5 5 5 4 5 5 1 2 3 0 1 1 4 4 5 9 54 95 66 46 4 1 2 27 94 100 100 100 100 100 99 1 54 100 100 100 100 100 100 100
26 72 7 44 5 5 5 5 2 5 5 5 4 5 5 37 19 84 31 98 82 3 0 0 0 0 0 0 6 25 100 100 100 100 100 100 26 11 5 100 100 100 100
11 50 68 98 100 71 18 53 24 5 5 5 11 8 73 96 100 100 96 56 4 0 0 0 22 18 0 0 0 0 0 10 2 0 66 99 100 95 55 30 99 100 100
99 96 99 83 100 69 78 96 54 5 5 18 90 100 100 100 100 71 0 0 0 0 0 0 2 2 0 0 0 0 0 0 0 0 0 0 0 25 96 100 72 5 100
49 57 84 100 77 94 100 100 10 100 98 100 100 100 100 90 100 0 0 1 0 0 0 0 0 0 0 0 0 0 0 0 0 0 0 0 5 9 2 63 100 100 100
100 89 82 90 100 97 100 100 100 100 100 100 100 100 100 23 0 0 0 0 0 4 0 0 0 0 0 0 0 0 0 0 0 0 0 0 0 0 0 100 100 100 91
84 100 100 100 100 100 100 100 100 100 100 100 100 100 87 10 0 0 0 10 11 0 0 0 0 0 0 0 0 0 0 0 0 0 0 0 0 0 9 100 100 100 100
100 100 100 100 100 100 100 100 100 100 100 100 100 69 4 0 0 0 0 0 0 0 0 0 0 0 0 0 0 0 0 0 0 0 0 0 0 0 1 100 100 100 100
100 100 100 100 100 100 100 100 100 100 100 100 35 4 0 0 0 0 0 0 0 0 0 0 0 0 0 0 0 0 0 0 0 0 0 0 0 0 30 100 100 100 100
100 100 100 100 100 100 100 100 100 100 100 6 3 0 0 0 0 0 0 0 0 0 0 0 0 0 0 0 0 0 0 0 0 0 0 0 0 4 1 94 91 93 25
100 100 100 100 100 100 100 100 100 100 94 8 0 0 0 0 0 0 0 0 0 0 0 0 0 0 0 0 0 0 0 0 0 0 0 0 0 2 5 33 99 100 100
100 100 100 100 100 100 100 100 100 100 38 0 0 0 0 0 0 0 0 0 0 0 0 0 0 0 0 0 0 0 0 0 0 0 0 0 0 0 1 5 2 5 4
100 100 100 100 100 100 100 100 100 8 1 0 0 0 0 0 0 0 0 0 0 0 0 0 0 0 0 0 0 0 0 0 0 0 0 0 0 0 0 2 5 1 0
100 100 100 100 100 100 100 44 1 2 0 0 0 0 0 0 0 0 0 0 0 0 0 0 0 0 0 0 0 0 0 0 0 0 0 0 0 0 0 0 0 5 4
100 100 100 100 100 97 47 100 100 95 16 0 0 0 0 0 0 0 0 0 0 0 0 0 0 0 0 0 0 0 0 0 0 0 0 0 0 0 0 0 0 0 4
100 100 98 33 92 96 100 100 100 100 4 0 0 0 0 0 4 5 1 0 0 0 0 0 0 0 0 0 0 0 0 0 0 0 0 0 0 0 0 0 0 0 0
42 13 15 74 100 100 100 100 100 10 0 0 0 0 1 0 5 5 3 5 5 2 0 0 0 0 0 0 0 0 0 0 0 0 0 4 0 0 0 0 0 0 0
8 1 83 100 100 100 100 100 97 5 3 0 0 1 0 5 3 4 5 5 5 3 0 0 0 0 0 0 0 2 5 5 5 5 6 6 16 5 5 3 0 0 0
4 0 1 0 100 100 100 99 5 0 1 5 5 5 5 5 5 5 5 5 36 5 5 2 0 2 0 3 5 5 5 5 32 79 99 88 36 6 5 5 5 1 0
0 0 0 0 1 2 8 4 5 5 5 5 5 5 5 5 5 5 7 33 47 5 5 5 1 0 4 5 3 2 5 5 7 45 66 58 79 9 5 5 5 3 0
3 4 4 0 0 0 0 5 5 5 5 5 5 5 5 5 16 100 5 5 1 0 0 0 0 2 5 5 5 5 5 5 5 5 5 5 34 26 72 81 45 26 5
7 0 0 5 26 5 5 5 5 5 2 4 4 66 92 55 9 5 5 3 4 5 5 33 40 10 15 5 5 5 2 5 6 32 44 25 8 24 8 38 95 100 100
0 2 5 40 62 41 5 5 5 1 3 5 5 64 77 22 6 3 2 3 4 5 4 2 1 2 5 5 5 43 74 50 86 100 100 97 78 66 23 74 73 34 44
5 5 2 5 5 5 5 2 1 5 5 44 45 71 82 25 5 5 2 4 5 0 0 2 4 5 16 82 98 98 95 52 6 66 100 100 98 100 100 100 100 79 90
0 0 5 5 5 1 5 34 100 100 100 100 100 96 41 6 10 45 89 100 100 100 97 94 60 100 100 100 100 96 5 5 8 26 20 25 5 5 85 100 64 49 93
0 1 1 0 0 0 3 5 29 91 89 100 100 100 100 100 100 100 81 38 4 4 5 54 93 100 99 100 83 5 5 95 97 100 94 6 5 4 88 100 100 100 80

GFSSE_prec_cloud_030.txt.gz
Cloud_Cover
85 11 5 5 5 10 5 4 5 4 3 2 5 3 2 0 0 0 7 100 37 5 1 0 0 0 0 0 0 72 100 100 100 100 71 7 82 100 100 100 100 100 100
46 9 5 40 100 15 5 5 5 5 5 5 0 0 0 0 0 5 97 54 5 0 0 0 3 0 0 0 0 0 0 0 88 100 100 100 100 98 81 21 100 100 100
87 18 70 89 20 23 14 5 5 5 3 2 0 0 3 5 5 5 55 8 2 3 8 4 7 4 0 0 0 0 0 0 0 0 0 100 100 100 100 15 100 100 100
54 43 66 100 100 100 80 40 39 5 6 5 5 5 22 5 12 100 80 27 7 0 0 0 4 0 0 0 0 0 0 0 0 0 0 22 82 37 68 63 96 100 100
71 82 100 100 24 64 77 10 6 14 11 26 16 44 100 97 99 100 89 100 8 0 0 0 0 0 0 0 0 0 0 0 0 0 0 0 0 0 50 100 42 100 100
90 92 100 98 100 94 42 44 89 22 87 100 100 100 100 100 100 100 100 91 0 0 0 0 0 0 0 0 0 0 0 0 0 0 0 0 0 0 0 2 86 8 91
97 100 100 100 28 20 89 97 100 100 100 100 43 65 100 100 100 96 8 0 0 0 0 0 0 0 0 0 0 0 0 0 0 0 0 0 0 0 0 0 0 0 50
100 100 99 89 96 86 100 100 100 100 100 99 100 100 100 100 100 6 0 0 0 0 0 0 0 0 0 0 0 0 0 0 0 0 0 0 0 0 0 0 0 0 3
100 100 100 100 100 90 100 100 100 100 100 100 100 100 100 100 66 4 0 0 0 0 0 0 0 0 0 0 0 0 0 0 0 0 0 0 0 0 0 0 0 20 78
100 100 100 100 98 100 100 100 100 100 100 100 100 100 100 100 5 0 0 0 0 0 0 0 0 0 0 0 0 0 0 0 0 0 0 0 0 0 0 0 0 8 73
100 96 100 100 100 100 100 100 100 100 100 100 100 100 16 1 0 0 0 0 0 0 0 0 0 0 0 0 0 0 0 0 0 0 0 0 0 0 0 0 0 5 35
100 100 100 100 100 100 100 100 100 100 100 100 100 5 4 3 0 0 0 0 0 0 0 0 0 0 0 0 0 0 0 0 0 0 0 0 0 0 0 0 0 0 12
100 100 100 100 100 100 100 100 100 100 100 100 91 72 22 10 5 0 0 0 0 0 0 0 0 0 0 0 0 0 0 0 0 0 0 0 0 0 0 0 0 2 5
100 100 100 100 100 100 100 100 100 100 100 100 100 100 100 7 4 0 0 0 0 0 0 0 0 0 0 0 0 0 0 0 0 0 0 0 0 0 0 0 0 0 0
100 100 100 100 100 100 100 100 100 100 100 100 100 100 100 6 5 0 0 0 0 0 0 0 0 0 0 0 0 0 0 0 0 0 0 0 0 0 0 0 0 0 0
100 100 100 100 100 100 100 97 99 64 100 100 100 100 100 81 1 0 0 0 0 0 0 0 0 0 0 0 0 0 0 0 0 0 0 0 0 0 0 0 0 0 0
100 100 100 100 25 88 100 97 100 100 13 100 100 95 100 64 0 5 5 5 5 4 5 5 5 0 0 0 5 5 4 3 4 3 5 5 5 4 1 0 3 0 0
34 48 45 4 70 100 68 91 100 100 15 100 100 100 100 5 5 5 2 4 5 5 5 5 5 5 0 1 5 5 5 5 5 5 5 5 5 5 5 5 5 2 0
5 5 5 15 5 22 4 0 91 100 100 100 19 76 17 69 66 5 5 4 5 5 5 5 4 0 0 0 3 4 5 5 5 5 6 68 85 55 96 88 88 66 21
5 5 17 85 32 62 5 5 49 100 99 99 14 5 5 5 31 72 5 44 19 5 5 1 0 0 0 2 5 5 5 5 30 64 61 78 98 100 100 100 100 93 56
52 66 44 75 79 63 92 97 22 68 76 75 13 2 5 5 33 73 98 28 5 4 5 5 5 4 0 4 5 5 9 8 8 46 11 5 5 11 10 99 100 100 100
8 12 1 0 59 79 100 96 100 100 95 18 0 5 8 73 94 51 8 30 50 4 1 0 3 4 5 5 4 6 8 5 5 5 15 56 47 55 69 52 35 69 92
43 5 0 4 5 6 74 88 24 14 54 78 93 80 31 5 5 2 0 0 2 1 0 0 0 0 0 2 11 79 43 11 5 12 5 5 5 37 99 91 65 79 95
0 0 0 5 5 16 10 5 5 14 89 88 86 65 10 5 5 0 0 1 0 2 4 2 4 5 56 88 100 40 100 73 26 5 4 5 5 1 0 5 8 31 12
0 0 0 0 0 0 5 29 97 100 100 97 100 100 100 100 100 100 100 100 100 99 22 5 3 5 2 36 59 72 63 57 23 86 61 6 2 0 0 0 14 100 100
1 0 0 0 0 2 5 62 100 89 88 100 100 100 100 100 99 91 86 68 10 4 3 2 5 5 5 6 58 90 59 13 6 99 89 76 89 3 0 0 0 10 92

GFSSE_prec_cloud_033.txt.gz
Cloud_Cover
52 70 88 66 5 5 5 5 5 4 3 0 0 0 0 0 0 0 0 0 3 2 0 2 1 0 0 0 0 0 0 0 0 74 100 100 99 98 66 99 100 100 100
50 96 94 96 81 5 5 5 5 2 5 0 0 0 0 0 0 0 5 0 5 3 34 60 17 2 0 0 0 0 0 0 0 0 0 75 100 61 82 97 100 100 100
97 89 98 90 5 5 5 5 5 5 6 1 0 0 0 1 4 5 0 4 13 11 5 5 2 1 0 0 0 0 0 0 0 0 0 0 15 98 100 100 100 100 98
100 100 57 71 23 12 15 36 5 7 17 9 4 3 6 5 5 2 5 5 12 99 23 2 0 0 0 0 0 0 0 0 0 0 0 0 0 0 1 100 100 50 89
96 69 99 50 97 98 100 71 6 5 69 7 5 12 13 8 5 39 5 5 98 10 3 2 0 0 0 0 0 0 0 0 0 0 0 0 0 0 0 24 100 100 64
100 91 24 100 100 94 100 5 26 99 98 5 7 5 19 81 6 5 34 92 17 7 5 2 0 0 0 0 0 0 0 0 0 0 0 0 0 0 0 0 0 21 4
76 59 100 100 100 100 100 100 100 100 100 76 51 56 20 5 12 64 71 99 6 88 4 0 0 0 0 0 0 0 0 0 0 0 0 0 0 0 0 0 0 0 0
100 91 99 100 100 100 100 100 100 100 100 97 97 100 90 27 62 45 84 74 5 5 2 0 0 0 0 0 0 0 0 0 0 0 0 0 0 0 0 0 0 0 0
57 90 99 100 98 100 45 96 100 100 91 100 61 19 95 100 100 52 12 5 4 2 0 1 0 0 0 0 0 0 0 0 0 0 0 0 0 0 0 0 0 0 0
80 100 100 100 100 100 100 100 100 100 100 100 16 100 100 100 98 8 69 5 2 0 0 0 0 0 0 0 0 0 0 0 0 0 0 0 0 0 1 0 0 0 0
100 100 100 100 100 100 100 100 100 100 100 100 100 100 100 75 19 69 5 4 5 0 0 0 0 0 0 0 0 0 0 0 0 0 0 0 0 0 0 0 2 0 0
100 100 100 100 100 100 100 100 100 100 100 100 100 100 100 75 20 5 5 5 5 5 0 0 0 0 0 0 0 0 0 0 0 0 0 0 0 0 0 0 0 0 0
100 100 100 100 100 100 100 100 100 100 100 100 100 100 100 100 99 88 85 5 5 5 5 0 0 0 0 0 0 0 0 0 0 0 0 0 0 0 0 0 0 0 0
100 100 100 100 100 100 100 100 100 100 100 100 100 100 100 100 21 58 100 76 13 8 6 2 0 0 0 0 0 0 0 0 0 0 0 0 0 0 0 0 0 0 0
100 100 100 100 100 100 100 100 100 100 92 76 47 88 28 96 100 100 97 96 75 54 47 0 0 0 0 0 0 2 0 0 1 4 5 4 0 0 0 0 0 0 0
100 100 100 100 100 100 100 100 100 100 94 100 100 97 100 74 100 100 80 96 100 100 57 0 0 2 2 0 0 0 0 0 0 0 2 5 5 5 4 0 0 2 2
100 100 100 100 29 11 74 100 100 100 100 100 100 100 100 92 100 53 66 76 100 64 3 2 5 5 0 0 0 4 3 5 5 5 3 4 5 7 46 20 5 3 1
55 42 40 95 32 16 70 100 100 84 4 12 35 20 96 21 51 97 84 42 5 5 5 5 2 0 0 2 0 1 4 4 5 5 5 5 5 5 5 5 5 5 5
100 87 96 92 100 100 100 100 100 80 16 20 0 1 2 47 68 21 5 5 5 5 5 5 5 4 0 0 0 0 3 5 3 4 5 5 5 5 5 5 5 4 3
34 48 60 78 100 100 100 100 100 71 11 1 2 5 5 1 3 5 6 64 91 99 13 13 5 4 0 0 0 5 5 5 18 43 60 55 26 5 5 5 49 78 85
5 87 100 100 100 51 47 98 82 49 5 5 5 5 4 54 99 86 46 5 9 4 5 5 5 3 0 0 2 5 5 6 61 98 100 70 20 5 5 9 70 87 88
98 46 42 8 74 97 75 40 60 5 5 5 5 3 5 42 8 0 0 1 24 15 4 1 0 0 0 2 2 4 5 38 6 5 5 5 5 5 5 6 33 36 93
4 2 4 2 0 0 4 5 5 5 5 5 16 10 5 5 1 0 0 2 1 1 0 0 0 0 0 0 0 2 3 4 3 0 0 0 0 0 0 0 3 5 21
23 1 1 0 0 0 2 2 2 38 8 7 4 1 2 2 4 5 5 5 5 12 4 5 2 0 0 5 1 4 5 26 66 29 5 0 0 0 0 0 0 0 0
5 6 5 5 5 4 78 100 98 92 100 100 100 98 100 100 100 100 100 100 94 90 52 0 0 2 5 14 7 27 52 42 65 74 100 90 18 4 0 0 0 0 5
86 97 96 52 5 31 82 100 100 100 100 100 100 100 100 100 100 73 13 38 6 0 0 0 0 5 5 5 30 78 86 96 100 100 100 34 62 5 5 1 1 3 5

GFSSE_prec_cloud_039.txt.gz
Cloud_Cover
80 100 100 100 100 50 24 5 5 5 5 5 0 0 1 0 0 0 0 0 0 14 46 50 4 0 5 3 0 0 0 0 0 0 0 0 0 0 0 0 5 5 69
100 100 100 79 99 94 35 5 5 5 5 1 0 0 0 0 0 0 0 0 0 1 0 0 0 0 0 0 0 0 0 0 0 0 0 0 0 0 0 0 0 12 73
100 100 100 100 100 15 11 57 94 1 5 5 5 5 5 0 1 0 5 1 0 8 85 0 4 0 4 0 0 0 0 0 0 0 0 0 0 0 0 0 0 0 0
100 100 100 100 100 7 6 5 5 6 28 9 28 72 3 3 1 3 4 2 4 100 6 1 5 0 1 7 0 0 0 0 0 0 0 0 0 0 0 0 0 0 0
99 99 99 91 80 6 37 5 9 62 37 29 7 5 34 40 34 5 5 86 39 5 5 5 5 1 0 6 0 0 0 0 0 0 0 0 0 0 0 0 0 0 0
94 100 100 100 66 98 89 78 58 84 16 5 5 84 9 100 5 5 95 100 100 7 5 5 42 3 0 4 5 0 0 0 0 0 0 0 0 0 1 0 0 0 0
100 100 100 100 100 94 78 79 100 18 8 44 11 77 68 68 25 100 100 100 93 33 95 5 5 4 1 5 0 0 0 0 0 0 0 0 0 0 0 0 0 0 0
100 100 100 100 97 77 100 100 94 29 23 90 78 96 99 97 81 100 100 98 40 5 5 5 5 20 2 0 0 0 0 0 0 0 0 0 0 0 0 0 0 0 0
100 100 100 100 100 100 100 100 98 75 98 90 100 100 100 100 100 95 69 100 22 5 5 5 1 0 5 0 0 0 0 0 0 0 0 0 0 0 0 0 0 0 0
100 100 100 100 100 100 100 85 49 100 100 100 100 100 100 100 89 100 91 39 5 5 5 1 0 5 6 0 0 0 1 0 0 0 0 0 0 0 0 0 0 0 0
100 100 100 96 95 93 100 100 100 100 100 100 100 100 100 100 100 100 95 96 5 5 5 1 0 5 22 5 5 0 0 0 5 0 0 0 0 0 0 0 0 0 0
100 100 100 91 100 100 100 100 100 100 100 100 100 100 100 100 100 100 39 22 7 5 4 0 1 0 1 4 32 5 5 2 0 5 0 0 0 0 0 0 0 0 0
100 100 100 100 100 100 100 100 100 100 100 100 100 100 100 100 100 98 6 23 2 2 4 5 3 0 3 4 4 4 5 3 0 4 0 0 0 0 0 0 0 0 0
100 100 100 100 100 100 100 100 100 100 100 100 100 100 100 100 85 10 4 5 5 5 4 0 0 0 0 4 5 0 0 0 0 0 0 0 0 0 0 0 0 0 0
100 100 100 100 100 100 100 100 100 100 100 100 100 100 75 5 17 5 5 3 1 5 34 0 0 0 0 0 0 0 0 0 0 0 0 0 0 0 0 0 0 0 0
100 100 98 90 100 100 100 100 82 100 100 100 100 100 100 100 84 100 87 26 6 5 0 0 0 0 0 0 0 0 0 0 0 0 0 3 4 0 0 0 0 0 0
100 99 100 100 80 84 86 100 100 100 100 74 100 100 100 100 97 99 100 100 79 12 32 27 5 5 3 4 5 5 5 5 5 2 0 0 5 5 5 5 1 0 0
13 97 94 100 100 100 98 100 100 100 100 100 100 100 100 100 100 100 100 100 23 5 35 5 17 10 5 5 5 7 5 5 5 5 1 0 0 0 0 0 0 0 0
98 100 100 90 100 95 100 100 100 100 100 100 100 100 100 100 100 100 100 84 6 5 5 22 13 18 87 89 64 5 5 5 5 5 5 5 5 6 8 5 4 5 5
100 100 85 83 100 100 100 100 100 100 100 100 100 100 100 100 100 100 28 0 3 5 5 5 28 36 16 7 5 5 5 0 4 5 5 4 5 6 6 8 49 36 5
61 32 75 94 86 83 100 100 100 100 100 100 100 100 100 100 100 98 5 5 5 5 5 5 5 5 5 5 5 2 0 1 1 4 5 5 5 18 6 5 5 5 35
44 41 13 55 67 72 72 5 5 72 100 76 100 98 21 1 1 0 0 0 0 0 0 2 4 2 5 4 2 4 2 3 4 3 5 5 5 10 17 42 32 5 9
5 5 23 24 5 15 5 1 5 50 5 5 5 8 5 5 0 3 5 2 14 74 93 99 97 78 5 1 0 4 0 0 5 4 3 5 3 5 5 5 5 5 2
88 80 56 5 5 5 3 5 61 48 60 82 5 3 5 5 5 5 43 95 100 100 42 8 1 0 0 3 4 5 5 35 96 94 72 69 8 5 5 5 5 5 2
68 13 69 42 8 92 99 92 74 77 91 91 54 5 5 7 71 100 100 96 6 5 5 5 0 0 0 5 14 12 35 53 87 100 58 54 34 80 80 5 5 5 5
47 72 62 100 89 74 84 19 5 16 5 4 4 5 46 100 99 68 6 4 2 0 0 5 5 5 6 5 5 5 5 5 6 89 58 34 42 11 81 78 23 5 5